BAW1 EGLL-KJFK

Flight info

Callsign BAW1
Flight time N/A
Altitude 30000
Route CPT DCT BRI DCT 50N015W 50N030W 49N040W 47N050W 46N053W 44N060W 42N065W42N067W PARCH3
Aircraft CONC/M-CONC/HB1

Departure

Time N/A
Airport London Heathrow Airport (EGLL)

Arrival

Time 2026-05-03 22:41
Airport John F. Kennedy International Airport (KJFK)
Time Latitude Longitude Altitude Speed Heading
2026-05-03 20:15 50.32349 -19.43846 54211 ft 1147 kts 274°
2026-05-03 20:15 50.33159 -19.68807 54246 ft 1148 kts 274°
2026-05-03 20:16 50.33938 -19.93793 54255 ft 1151 kts 274°
2026-05-03 20:16 50.34687 -20.18851 54250 ft 1153 kts 274°
2026-05-03 20:17 50.35406 -20.43952 54260 ft 1154 kts 274°
2026-05-03 20:17 50.36091 -20.68927 54268 ft 1156 kts 273°
2026-05-03 20:18 50.36750 -20.94150 54273 ft 1158 kts 273°
2026-05-03 20:18 50.37374 -21.19330 55044 ft 1152 kts 273°
2026-05-03 20:18 50.37673 -21.31865 55581 ft 1149 kts 273°
2026-05-03 20:19 50.37962 -21.44395 55884 ft 1147 kts 273°
2026-05-03 20:19 50.38243 -21.56886 56064 ft 1147 kts 273°
2026-05-03 20:19 50.38516 -21.69413 56144 ft 1148 kts 273°
2026-05-03 20:20 50.39044 -21.94424 56241 ft 1149 kts 273°
2026-05-03 20:20 50.39538 -22.19454 56282 ft 1151 kts 272°
2026-05-03 20:21 50.39691 -22.44588 56297 ft 1153 kts 271°
2026-05-03 20:21 50.39639 -22.69580 56296 ft 1154 kts 270°
2026-05-03 20:22 50.39525 -22.94743 56302 ft 1156 kts 270°
2026-05-03 20:22 50.39379 -23.19965 56310 ft 1158 kts 270°
2026-05-03 20:23 50.39208 -23.45239 56324 ft 1159 kts 270°
2026-05-03 20:23 50.39017 -23.70519 56319 ft 1160 kts 270°
2026-05-03 20:24 50.38809 -23.95811 56327 ft 1159 kts 270°
2026-05-03 20:24 50.38577 -24.21048 56332 ft 1157 kts 270°
2026-05-03 20:25 50.38322 -24.46255 56335 ft 1156 kts 270°
2026-05-03 20:25 50.38044 -24.71283 56343 ft 1155 kts 270°
2026-05-03 20:26 50.37742 -24.96466 56335 ft 1154 kts 270°
2026-05-03 20:26 50.37416 -25.21591 56348 ft 1154 kts 269°
2026-05-03 20:27 50.37065 -25.46729 56352 ft 1153 kts 269°
2026-05-03 20:27 50.36689 -25.71827 56362 ft 1152 kts 269°
2026-05-03 20:28 50.36290 -25.96922 56359 ft 1152 kts 269°
2026-05-03 20:28 50.35867 -26.22050 56369 ft 1152 kts 269°
2026-05-03 20:29 50.35424 -26.46987 56369 ft 1152 kts 269°
2026-05-03 20:29 50.34953 -26.72079 56373 ft 1152 kts 269°
2026-05-03 20:30 50.34460 -26.97149 56377 ft 1152 kts 269°
2026-05-03 20:30 50.33944 -27.22239 56387 ft 1152 kts 269°
2026-05-03 20:31 50.33348 -27.47292 56388 ft 1152 kts 267°
2026-05-03 20:31 50.32080 -27.72095 56420 ft 1152 kts 263°
2026-05-03 20:32 50.29372 -27.96854 56435 ft 1153 kts 257°
2026-05-03 20:32 50.25500 -28.21192 56426 ft 1153 kts 256°
2026-05-03 20:33 50.21332 -28.45408 56397 ft 1156 kts 255°
2026-05-03 20:33 50.17799 -28.65544 56411 ft 1159 kts 255°
2026-05-03 20:34 50.13509 -28.89801 56412 ft 1161 kts 255°
2026-05-03 20:34 50.09179 -29.14100 56408 ft 1164 kts 255°
2026-05-03 20:35 50.04819 -29.38398 56413 ft 1166 kts 255°
2026-05-03 20:35 50.00431 -29.62691 56410 ft 1167 kts 255°
2026-05-03 20:36 49.96041 -29.86828 56411 ft 1169 kts 255°
2026-05-03 20:36 49.91596 -30.11120 56424 ft 1170 kts 255°
2026-05-03 20:37 49.87316 -30.35431 56432 ft 1165 kts 257°
2026-05-03 20:37 49.83913 -30.59908 56433 ft 1157 kts 259°
2026-05-03 20:38 49.80762 -30.84271 56423 ft 1151 kts 259°
2026-05-03 20:38 49.77654 -31.08557 56424 ft 1146 kts 259°
2026-05-03 20:39 49.74556 -31.32672 56436 ft 1141 kts 259°
2026-05-03 20:39 49.71457 -31.56650 56432 ft 1136 kts 259°
2026-05-03 20:40 49.68358 -31.80461 56430 ft 1138 kts 259°
2026-05-03 20:40 49.65213 -32.04455 56438 ft 1142 kts 259°
2026-05-03 20:41 49.62033 -32.28543 56434 ft 1146 kts 259°
2026-05-03 20:41 49.58847 -32.52497 56429 ft 1149 kts 259°
2026-05-03 20:42 49.55612 -32.76653 56438 ft 1151 kts 259°
2026-05-03 20:42 49.52352 -33.00836 56443 ft 1154 kts 258°
2026-05-03 20:43 49.49066 -33.25037 56431 ft 1156 kts 258°
2026-05-03 20:43 49.45755 -33.49248 56431 ft 1158 kts 258°
2026-05-03 20:44 49.42420 -33.73463 56427 ft 1159 kts 258°
2026-05-03 20:44 49.39059 -33.97682 56429 ft 1161 kts 258°
2026-05-03 20:45 49.35687 -34.21794 56426 ft 1162 kts 258°
2026-05-03 20:45 49.32271 -34.46042 56421 ft 1163 kts 258°
2026-05-03 20:46 49.28838 -34.70246 56416 ft 1163 kts 258°
2026-05-03 20:46 49.25389 -34.94399 56409 ft 1156 kts 258°
2026-05-03 20:47 49.21935 -35.18401 56410 ft 1151 kts 258°
2026-05-03 20:47 49.18476 -35.42255 56409 ft 1145 kts 258°
2026-05-03 20:48 49.15031 -35.65826 56399 ft 1141 kts 258°
2026-05-03 20:48 49.11558 -35.89423 56409 ft 1137 kts 258°
2026-05-03 20:49 49.08076 -36.12901 56408 ft 1133 kts 257°
2026-05-03 20:49 49.04577 -36.36310 56401 ft 1129 kts 257°
2026-05-03 20:50 49.01073 -36.59571 56407 ft 1129 kts 257°
2026-05-03 20:50 48.97522 -36.82950 56399 ft 1132 kts 257°
2026-05-03 20:51 48.93967 -37.06176 56397 ft 1134 kts 257°
2026-05-03 20:51 48.90360 -37.29559 56384 ft 1137 kts 257°
2026-05-03 20:52 48.86721 -37.52977 56391 ft 1139 kts 257°
2026-05-03 20:52 48.83069 -37.76301 56381 ft 1141 kts 257°
2026-05-03 20:53 48.79357 -37.99827 56378 ft 1142 kts 257°
2026-05-03 20:53 48.75629 -38.23265 56374 ft 1144 kts 257°
2026-05-03 20:54 48.71876 -38.46675 56365 ft 1145 kts 257°
2026-05-03 20:54 48.66214 -38.81684 56363 ft 1146 kts 257°
2026-05-03 20:55 48.62390 -39.05118 56366 ft 1147 kts 257°
2026-05-03 20:55 48.58536 -39.28550 56350 ft 1148 kts 257°
2026-05-03 20:56 48.54660 -39.51939 56343 ft 1149 kts 256°
2026-05-03 20:56 48.50753 -39.75343 56337 ft 1150 kts 256°
2026-05-03 20:57 48.46819 -39.98747 56330 ft 1150 kts 256°
2026-05-03 20:57 48.42888 -40.21960 56319 ft 1151 kts 256°
2026-05-03 20:58 48.38905 -40.45322 56316 ft 1151 kts 256°
2026-05-03 20:58 48.34898 -40.68664 56309 ft 1152 kts 256°
2026-05-03 20:59 48.30900 -40.91811 56289 ft 1135 kts 256°
2026-05-03 20:59 48.26912 -41.14777 56300 ft 1136 kts 256°
2026-05-03 21:00 48.23584 -41.33863 56283 ft 1137 kts 256°
2026-05-03 21:00 48.18916 -41.60531 56274 ft 1138 kts 256°
2026-05-03 21:01 48.14873 -41.83501 56268 ft 1139 kts 256°
2026-05-03 21:01 48.10817 -42.06425 56270 ft 1140 kts 256°
2026-05-03 21:02 48.06733 -42.29377 56251 ft 1141 kts 256°
2026-05-03 21:02 48.02627 -42.52327 56236 ft 1142 kts 256°
2026-05-03 21:03 47.98530 -42.75114 56231 ft 1144 kts 256°
2026-05-03 21:03 47.94357 -42.98214 56231 ft 1145 kts 256°
2026-05-03 21:04 47.90196 -43.21136 56218 ft 1147 kts 255°
2026-05-03 21:04 47.86033 -43.43966 56215 ft 1148 kts 255°
2026-05-03 21:05 47.81834 -43.66905 56194 ft 1149 kts 255°
2026-05-03 21:05 47.77614 -43.89857 56181 ft 1151 kts 255°
2026-05-03 21:06 47.73370 -44.12820 56181 ft 1152 kts 255°
2026-05-03 21:06 47.69106 -44.35767 56166 ft 1154 kts 255°
2026-05-03 21:07 47.64842 -44.58587 56153 ft 1155 kts 255°
2026-05-03 21:07 47.60535 -44.81532 56147 ft 1154 kts 255°
2026-05-03 21:08 47.56218 -45.04391 56139 ft 1148 kts 255°
2026-05-03 21:08 47.51893 -45.27105 56126 ft 1143 kts 255°
2026-05-03 21:09 47.47566 -45.49656 56117 ft 1138 kts 255°
2026-05-03 21:09 47.43223 -45.72130 56108 ft 1134 kts 255°
2026-05-03 21:10 47.38874 -45.94479 56110 ft 1129 kts 255°
2026-05-03 21:10 47.34532 -46.16699 56095 ft 1125 kts 255°
2026-05-03 21:11 47.30207 -46.38806 56083 ft 1121 kts 255°
2026-05-03 21:11 47.25929 -46.60700 56065 ft 1116 kts 255°
2026-05-03 21:12 47.21657 -46.82648 56056 ft 1112 kts 255°
2026-05-03 21:12 47.17414 -47.04519 56044 ft 1110 kts 255°
2026-05-03 21:13 47.13200 -47.26311 56050 ft 1108 kts 255°
2026-05-03 21:13 47.09000 -47.48105 56042 ft 1108 kts 255°
2026-05-03 21:14 47.04837 -47.69746 56034 ft 1108 kts 254°
2026-05-03 21:14 47.00654 -47.91515 56026 ft 1110 kts 254°
2026-05-03 21:15 46.96460 -48.13320 56018 ft 1112 kts 254°
2026-05-03 21:15 46.92257 -48.35135 56009 ft 1114 kts 254°
2026-05-03 21:16 46.88040 -48.56966 56001 ft 1116 kts 254°
2026-05-03 21:16 46.83811 -48.78790 55999 ft 1117 kts 254°
2026-05-03 21:17 46.80283 -48.96933 55990 ft 1119 kts 254°
2026-05-03 21:17 46.75292 -49.22490 55981 ft 1120 kts 254°
2026-05-03 21:18 46.71026 -49.44207 55971 ft 1122 kts 254°
2026-05-03 21:18 46.66700 -49.66123 55972 ft 1122 kts 254°
2026-05-03 21:19 46.62364 -49.87967 55960 ft 1124 kts 253°
2026-05-03 21:19 46.57675 -50.09578 55958 ft 1130 kts 252°
2026-05-03 21:20 46.52607 -50.31303 55951 ft 1135 kts 251°
2026-05-03 21:20 46.47434 -50.53002 55945 ft 1140 kts 251°
2026-05-03 21:21 46.42215 -50.74754 55944 ft 1144 kts 251°
2026-05-03 21:21 46.36973 -50.96552 55933 ft 1147 kts 251°
2026-05-03 21:22 46.32611 -51.14682 55929 ft 1148 kts 251°
2026-05-03 21:22 46.26526 -51.39964 55923 ft 1141 kts 251°
2026-05-03 21:23 46.22165 -51.58075 55923 ft 1135 kts 251°
2026-05-03 21:23 46.16990 -51.79552 55920 ft 1128 kts 251°
2026-05-03 21:24 46.11877 -52.00763 55923 ft 1123 kts 251°
2026-05-03 21:24 46.06765 -52.21990 55918 ft 1118 kts 251°
2026-05-03 21:25 46.01689 -52.43103 55915 ft 1113 kts 251°
2026-05-03 21:25 45.96642 -52.64102 55910 ft 1109 kts 251°
2026-05-03 21:26 45.91607 -52.85029 55912 ft 1106 kts 251°
2026-05-03 21:26 45.86616 -53.05740 55909 ft 1102 kts 251°
2026-05-03 21:27 45.81607 -53.26496 55902 ft 1099 kts 251°
2026-05-03 21:27 45.76617 -53.47177 55891 ft 1097 kts 251°
2026-05-03 21:28 45.71637 -53.67834 55888 ft 1094 kts 250°
2026-05-03 21:28 45.66683 -53.88401 55871 ft 1092 kts 250°
2026-05-03 21:29 45.61728 -54.08987 55865 ft 1097 kts 250°
2026-05-03 21:29 45.56782 -54.29542 55868 ft 1104 kts 250°
2026-05-03 21:30 45.51772 -54.50331 55861 ft 1110 kts 250°
2026-05-03 21:30 45.46727 -54.71230 55850 ft 1116 kts 250°
2026-05-03 21:31 45.41661 -54.92195 55841 ft 1121 kts 250°
2026-05-03 21:31 45.36572 -55.13228 55831 ft 1125 kts 250°
2026-05-03 21:32 45.31497 -55.34153 55810 ft 1128 kts 250°
2026-05-03 21:32 45.26331 -55.55383 55805 ft 1131 kts 250°
2026-05-03 21:33 45.21208 -55.76339 55797 ft 1132 kts 250°
2026-05-03 21:33 45.16033 -55.97425 55779 ft 1133 kts 250°
2026-05-03 21:34 45.10843 -56.18509 55768 ft 1133 kts 250°
2026-05-03 21:34 45.05645 -56.39577 55745 ft 1132 kts 250°
2026-05-03 21:35 45.00455 -56.60582 55720 ft 1131 kts 250°
2026-05-03 21:35 44.95269 -56.81546 55694 ft 1130 kts 250°
2026-05-03 21:36 44.90089 -57.02488 55673 ft 1129 kts 250°
2026-05-03 21:36 44.84918 -57.23387 55649 ft 1128 kts 250°
2026-05-03 21:37 44.79764 -57.44216 55614 ft 1123 kts 250°
2026-05-03 21:37 44.74675 -57.64777 55597 ft 1118 kts 250°
2026-05-03 21:38 44.69569 -57.85421 55571 ft 1114 kts 250°
2026-05-03 21:38 44.64493 -58.05965 55541 ft 1111 kts 250°
2026-05-03 21:39 44.59448 -58.26412 55518 ft 1107 kts 250°
2026-05-03 21:39 44.54427 -58.46814 55508 ft 1104 kts 250°
2026-05-03 21:40 44.49439 -58.67142 55477 ft 1101 kts 250°
2026-05-03 21:40 44.44517 -58.87281 55466 ft 1098 kts 250°
2026-05-03 21:41 44.39587 -59.07521 55449 ft 1096 kts 250°
2026-05-03 21:41 44.34682 -59.27645 55416 ft 1094 kts 250°
2026-05-03 21:42 44.29483 -59.47608 55408 ft 1092 kts 249°
2026-05-03 21:42 44.24160 -59.67464 55380 ft 1091 kts 249°
2026-05-03 21:43 44.18824 -59.87272 55365 ft 1090 kts 248°
2026-05-03 21:43 44.13501 -60.07043 55349 ft 1089 kts 248°
2026-05-03 21:44 44.08224 -60.26675 55338 ft 1089 kts 248°
2026-05-03 21:44 44.02936 -60.46384 55319 ft 1088 kts 249°
2026-05-03 21:45 43.98173 -60.66342 55380 ft 1089 kts 258°
2026-05-03 21:45 43.97075 -60.87316 55211 ft 1095 kts 266°
2026-05-03 21:46 43.96353 -60.97844 54587 ft 1095 kts 257°
2026-05-03 21:46 43.94554 -61.08134 53989 ft 1097 kts 252°
2026-05-03 21:46 43.92255 -61.18078 53612 ft 1099 kts 250°
2026-05-03 21:46 43.89738 -61.28098 53433 ft 1100 kts 249°
2026-05-03 21:47 43.85207 -61.48360 53344 ft 1102 kts 256°
2026-05-03 21:47 43.81750 -61.69059 53299 ft 1099 kts 252°
2026-05-03 21:48 43.77589 -61.89430 53226 ft 1099 kts 252°
2026-05-03 21:48 43.73378 -62.09609 53186 ft 1099 kts 252°
2026-05-03 21:49 43.69103 -62.29900 53159 ft 1098 kts 252°
2026-05-03 21:49 43.64802 -62.50132 53134 ft 1098 kts 252°
2026-05-03 21:50 43.60464 -62.70351 53112 ft 1097 kts 252°
2026-05-03 21:50 43.56091 -62.90538 53085 ft 1097 kts 252°
2026-05-03 21:51 43.51711 -63.10568 53078 ft 1097 kts 252°
2026-05-03 21:51 43.47272 -63.30672 53060 ft 1097 kts 252°
2026-05-03 21:52 43.42792 -63.50779 53079 ft 1097 kts 251°
2026-05-03 21:52 43.38302 -63.70739 53111 ft 1098 kts 251°
2026-05-03 21:53 43.33754 -63.90776 53175 ft 1098 kts 251°
2026-05-03 21:53 43.29173 -64.10773 53230 ft 1097 kts 251°
2026-05-03 21:54 43.24561 -64.30725 53290 ft 1097 kts 251°
2026-05-03 21:54 43.19917 -64.50635 53364 ft 1096 kts 250°
2026-05-03 21:55 43.15233 -64.70535 53403 ft 1096 kts 251°
2026-05-03 21:55 43.10515 -64.90406 53448 ft 1096 kts 251°
2026-05-03 21:56 43.05770 -65.10213 53489 ft 1096 kts 251°
2026-05-03 21:56 43.01019 -65.29877 53521 ft 1096 kts 250°
2026-05-03 21:57 42.96200 -65.49646 53525 ft 1097 kts 250°
2026-05-03 21:57 42.91346 -65.69394 53548 ft 1097 kts 250°
2026-05-03 21:58 42.86453 -65.89128 53577 ft 1097 kts 250°
2026-05-03 21:58 42.81530 -66.08814 53581 ft 1097 kts 250°
2026-05-03 21:59 42.76566 -66.28500 53612 ft 1098 kts 250°
2026-05-03 21:59 42.71607 -66.48002 53626 ft 1098 kts 250°
2026-05-03 22:00 42.66579 -66.67613 53648 ft 1098 kts 250°
2026-05-03 22:00 42.61517 -66.87192 53724 ft 1097 kts 250°
2026-05-03 22:01 42.56425 -67.06733 53702 ft 1097 kts 250°
2026-05-03 22:01 42.51298 -67.26243 53692 ft 1097 kts 250°
2026-05-03 22:02 42.46147 -67.45691 53706 ft 1097 kts 250°
2026-05-03 22:02 42.40990 -67.65004 53709 ft 1097 kts 249°
2026-05-03 22:03 42.35768 -67.84404 53727 ft 1096 kts 249°
2026-05-03 22:03 42.30514 -68.03774 53734 ft 1096 kts 249°
2026-05-03 22:04 42.25230 -68.23099 53752 ft 1096 kts 249°
2026-05-03 22:04 42.19927 -68.42347 53758 ft 1095 kts 249°
2026-05-03 22:05 42.14587 -68.61575 53784 ft 1095 kts 249°
2026-05-03 22:05 42.09212 -68.80784 53787 ft 1095 kts 249°
2026-05-03 22:06 42.03812 -68.99936 53474 ft 1096 kts 248°
2026-05-03 22:06 42.01110 -69.09464 52687 ft 1081 kts 248°
2026-05-03 22:06 41.98446 -69.18825 51875 ft 1063 kts 248°
2026-05-03 22:07 41.95819 -69.28020 51073 ft 1045 kts 248°
2026-05-03 22:07 41.93263 -69.36934 50275 ft 1028 kts 248°
2026-05-03 22:07 41.90710 -69.45809 49459 ft 1010 kts 248°
2026-05-03 22:07 41.88195 -69.54521 48664 ft 993 kts 248°
2026-05-03 22:08 41.85719 -69.63069 47868 ft 976 kts 248°
2026-05-03 22:08 41.83272 -69.71488 47082 ft 959 kts 248°
2026-05-03 22:08 41.80868 -69.79733 46298 ft 942 kts 248°
2026-05-03 22:08 41.78497 -69.87839 45506 ft 924 kts 248°
2026-05-03 22:09 41.76172 -69.95764 44708 ft 904 kts 248°
2026-05-03 22:09 41.73892 -70.03511 43901 ft 883 kts 248°
2026-05-03 22:09 41.71656 -70.11086 43082 ft 861 kts 248°
2026-05-03 22:10 41.68070 -70.23188 41761 ft 822 kts 248°
2026-05-03 22:10 41.65321 -70.32432 40792 ft 788 kts 248°
2026-05-03 22:10 41.63324 -70.39122 40083 ft 762 kts 248°
2026-05-03 22:10 41.62035 -70.43434 39645 ft 745 kts 248°
2026-05-03 22:11 41.60141 -70.49754 38974 ft 720 kts 248°
2026-05-03 22:11 41.58306 -70.55863 38276 ft 695 kts 249°
2026-05-03 22:11 41.56534 -70.61749 37457 ft 672 kts 249°
2026-05-03 22:11 41.54816 -70.67443 36676 ft 649 kts 249°
2026-05-03 22:12 41.53165 -70.72892 35921 ft 618 kts 248°
2026-05-03 22:12 41.51585 -70.78099 35188 ft 591 kts 249°
2026-05-03 22:12 41.50078 -70.83083 34480 ft 567 kts 249°
2026-05-03 22:12 41.48626 -70.87865 33753 ft 545 kts 249°
2026-05-03 22:13 41.47231 -70.92445 32909 ft 521 kts 249°
2026-05-03 22:13 41.45882 -70.96862 32146 ft 505 kts 249°
2026-05-03 22:13 41.44567 -71.01166 31395 ft 498 kts 249°
2026-05-03 22:13 41.43273 -71.05372 30676 ft 493 kts 249°
2026-05-03 22:14 41.41993 -71.09544 29955 ft 484 kts 249°
2026-05-03 22:14 41.40723 -71.13695 29098 ft 478 kts 249°
2026-05-03 22:14 41.39472 -71.17774 28254 ft 473 kts 249°
2026-05-03 22:14 41.38230 -71.21810 27417 ft 468 kts 249°
2026-05-03 22:15 41.37000 -71.25803 26618 ft 462 kts 250°
2026-05-03 22:15 41.35784 -71.29738 25852 ft 459 kts 249°
2026-05-03 22:15 41.34577 -71.33612 25096 ft 457 kts 249°
2026-05-03 22:15 41.33370 -71.37498 24361 ft 452 kts 250°
2026-05-03 22:16 41.32178 -71.41349 23641 ft 448 kts 250°
2026-05-03 22:16 41.30992 -71.45169 22828 ft 445 kts 250°
2026-05-03 22:16 41.29800 -71.49003 21984 ft 440 kts 250°
2026-05-03 22:16 41.28650 -71.52691 21183 ft 435 kts 250°
2026-05-03 22:17 41.27494 -71.56397 20394 ft 431 kts 250°
2026-05-03 22:17 41.26349 -71.60060 19618 ft 427 kts 250°
2026-05-03 22:17 41.25211 -71.63694 18883 ft 424 kts 250°
2026-05-03 22:17 41.24083 -71.67293 18143 ft 420 kts 250°
2026-05-03 22:18 41.22963 -71.70862 17311 ft 416 kts 250°
2026-05-03 22:18 41.21854 -71.74389 16498 ft 411 kts 250°
2026-05-03 22:18 41.20757 -71.77872 15701 ft 407 kts 250°
2026-05-03 22:18 41.19667 -71.81330 14944 ft 404 kts 250°
2026-05-03 22:19 41.18591 -71.84751 14199 ft 400 kts 250°
2026-05-03 22:19 41.17520 -71.88144 13427 ft 397 kts 250°
2026-05-03 22:19 41.16457 -71.91507 12610 ft 393 kts 250°
2026-05-03 22:19 41.15378 -71.94923 11942 ft 424 kts 249°
2026-05-03 22:20 41.14187 -71.98691 11943 ft 445 kts 249°
2026-05-03 22:20 41.12981 -72.02449 11940 ft 443 kts 249°
2026-05-03 22:20 41.11782 -72.06221 11921 ft 444 kts 249°
2026-05-03 22:20 41.10587 -72.09990 11915 ft 443 kts 249°
2026-05-03 22:21 41.09477 -72.13800 11918 ft 442 kts 253°
2026-05-03 22:21 41.08522 -72.17679 11915 ft 442 kts 254°
2026-05-03 22:21 41.07588 -72.21507 11908 ft 442 kts 253°
2026-05-03 22:21 41.06634 -72.25382 11903 ft 442 kts 253°
2026-05-03 22:22 41.05674 -72.29253 11899 ft 442 kts 253°
2026-05-03 22:22 41.04714 -72.33108 11895 ft 442 kts 253°
2026-05-03 22:22 41.03751 -72.36970 11930 ft 441 kts 253°
2026-05-03 22:22 41.02790 -72.40826 11955 ft 443 kts 253°
2026-05-03 22:23 41.01820 -72.44712 11968 ft 442 kts 253°
2026-05-03 22:23 41.00880 -72.48456 11965 ft 410 kts 253°
2026-05-03 22:23 41.00013 -72.51913 11995 ft 386 kts 253°
2026-05-03 22:23 40.99168 -72.55292 11978 ft 389 kts 252°
2026-05-03 22:24 40.98181 -72.58559 11612 ft 378 kts 238°
2026-05-03 22:24 40.96518 -72.61227 10886 ft 374 kts 229°
2026-05-03 22:24 40.94701 -72.63642 10388 ft 363 kts 227°
2026-05-03 22:24 40.92924 -72.65909 10176 ft 345 kts 227°
2026-05-03 22:25 40.91262 -72.68026 10085 ft 327 kts 229°
2026-05-03 22:25 40.89734 -72.70185 10034 ft 308 kts 232°
2026-05-03 22:25 40.88372 -72.72270 10011 ft 291 kts 233°
2026-05-03 22:25 40.87124 -72.74240 10006 ft 276 kts 233°
2026-05-03 22:26 40.85903 -72.76190 10015 ft 275 kts 234°
2026-05-03 22:26 40.84662 -72.78169 9461 ft 285 kts 233°
2026-05-03 22:26 40.83357 -72.80224 8637 ft 297 kts 233°
2026-05-03 22:26 40.81999 -72.82340 7851 ft 307 kts 233°
2026-05-03 22:27 40.80599 -72.84510 7087 ft 313 kts 233°
2026-05-03 22:27 40.79181 -72.86713 6335 ft 315 kts 233°
2026-05-03 22:27 40.77773 -72.88894 5581 ft 310 kts 233°
2026-05-03 22:27 40.76416 -72.91012 5250 ft 293 kts 233°
2026-05-03 22:28 40.75143 -72.93000 5098 ft 273 kts 233°
2026-05-03 22:28 40.73963 -72.94841 5031 ft 263 kts 234°
2026-05-03 22:28 40.72780 -72.96694 5026 ft 263 kts 233°
2026-05-03 22:28 40.71602 -72.98531 4996 ft 264 kts 233°
2026-05-03 22:29 40.70411 -73.00375 4996 ft 263 kts 233°
2026-05-03 22:29 40.69486 -73.02393 4986 ft 256 kts 261°
2026-05-03 22:29 40.69621 -73.04659 5032 ft 251 kts 298°
2026-05-03 22:29 40.70796 -73.06309 5079 ft 253 kts 332°
2026-05-03 22:30 40.72355 -73.07397 5031 ft 253 kts 316°
2026-05-03 22:30 40.73215 -73.09341 5061 ft 251 kts 279°
2026-05-03 22:30 40.72960 -73.11622 5105 ft 260 kts 243°
2026-05-03 22:30 40.71698 -73.13350 5133 ft 269 kts 216°
2026-05-03 22:31 40.70108 -73.14629 5069 ft 270 kts 213°
2026-05-03 22:31 40.68449 -73.15883 4399 ft 278 kts 212°
2026-05-03 22:31 40.66739 -73.17135 3644 ft 283 kts 212°
2026-05-03 22:31 40.65059 -73.18420 3268 ft 272 kts 220°
2026-05-03 22:32 40.63617 -73.19945 3120 ft 264 kts 225°
2026-05-03 22:32 40.62251 -73.21551 3071 ft 262 kts 226°
2026-05-03 22:32 40.60912 -73.23187 3030 ft 261 kts 226°
2026-05-03 22:32 40.59602 -73.24808 3014 ft 262 kts 227°
2026-05-03 22:33 40.58279 -73.26459 3004 ft 261 kts 226°
2026-05-03 22:33 40.56998 -73.28064 3000 ft 244 kts 225°
2026-05-03 22:33 40.55806 -73.29556 2980 ft 232 kts 227°
2026-05-03 22:33 40.54634 -73.31022 2986 ft 232 kts 231°
2026-05-03 22:34 40.53948 -73.32837 2977 ft 220 kts 271°
2026-05-03 22:34 40.54244 -73.34776 3029 ft 218 kts 292°
2026-05-03 22:34 40.54809 -73.36614 3032 ft 216 kts 295°
2026-05-03 22:34 40.55394 -73.38447 3029 ft 218 kts 291°
2026-05-03 22:35 40.55870 -73.40329 3020 ft 218 kts 289°
2026-05-03 22:35 40.56252 -73.42253 2987 ft 213 kts 277°
2026-05-03 22:35 40.56268 -73.44121 2969 ft 200 kts 270°
2026-05-03 22:35 40.56180 -73.45945 2982 ft 203 kts 268°
2026-05-03 22:36 40.56061 -73.47788 2986 ft 200 kts 268°
2026-05-03 22:36 40.55922 -73.49616 2978 ft 202 kts 268°
2026-05-03 22:36 40.55835 -73.51458 2998 ft 201 kts 275°
2026-05-03 22:36 40.55929 -73.53288 2993 ft 201 kts 278°
2026-05-03 22:37 40.56112 -73.55113 3001 ft 199 kts 281°
2026-05-03 22:37 40.56357 -73.56896 3004 ft 197 kts 284°
2026-05-03 22:37 40.56658 -73.58658 3006 ft 199 kts 286°
2026-05-03 22:37 40.56992 -73.60400 2991 ft 190 kts 281°
2026-05-03 22:38 40.57193 -73.62064 2762 ft 180 kts 282°
2026-05-03 22:38 40.57402 -73.63684 2396 ft 180 kts 283°
2026-05-03 22:38 40.57684 -73.65266 2118 ft 176 kts 288°
2026-05-03 22:38 40.58088 -73.66794 1840 ft 178 kts 298°
2026-05-03 22:39 40.58675 -73.68185 1787 ft 174 kts 303°
2026-05-03 22:39 40.59328 -73.69530 1567 ft 175 kts 302°
2026-05-03 22:39 40.59986 -73.70883 1347 ft 175 kts 301°
2026-05-03 22:39 40.60589 -73.72254 1109 ft 168 kts 300°
2026-05-03 22:40 40.61152 -73.73556 823 ft 161 kts 301°
2026-05-03 22:40 40.61733 -73.74819 557 ft 164 kts 304°
2026-05-03 22:40 40.62324 -73.76105 399 ft 162 kts 301°
2026-05-03 22:40 40.62891 -73.77375 133 ft 161 kts 303°
2026-05-03 22:41 40.63450 -73.78617 36 ft 150 kts 304°
2026-05-03 22:41 40.63948 -73.79705 27 ft 122 kts 301°
2026-05-03 22:41 40.64229 -73.80327 28 ft 49 kts 301°
2026-05-03 22:41 40.64313 -73.80448 28 ft 12 kts 338°
2026-05-03 22:42 40.64382 -73.80440 27 ft 8 kts
2026-05-03 22:42 40.64421 -73.80415 27 ft 5 kts 43°
2026-05-03 22:42 40.64423 -73.80385 27 ft 3 kts 95°
2026-05-03 22:42 40.64406 -73.80332 27 ft 9 kts 117°
2026-05-03 22:43 40.64376 -73.80266 27 ft 9 kts 121°
2026-05-03 22:43 40.64343 -73.80193 27 ft 10 kts 121°
2026-05-03 22:43 40.64311 -73.80116 27 ft 1 kts 118°
2026-05-03 22:43 40.64306 -73.80103 27 ft 2 kts 118°
2026-05-03 22:44 40.64296 -73.80080 27 ft 4 kts 118°
2026-05-03 22:44 40.64281 -73.80046 27 ft 5 kts 124°
2026-05-03 22:44 40.64234 -73.79976 27 ft 15 kts 132°
2026-05-03 22:44 40.64164 -73.79858 28 ft 17 kts 116°
2026-05-03 22:45 40.64163 -73.79714 28 ft 16 kts 85°
2026-05-03 22:45 40.64183 -73.79567 27 ft 17 kts 71°
2026-05-03 22:45 40.64238 -73.79502 27 ft 9 kts
2026-05-03 22:45 40.64302 -73.79499 27 ft 9 kts
2026-05-03 22:46 40.64374 -73.79495 27 ft 11 kts 357°
2026-05-03 22:46 40.64437 -73.79499 27 ft 8 kts 357°
2026-05-03 22:46 40.64485 -73.79502 27 ft 7 kts 357°
2026-05-03 22:46 40.64537 -73.79507 27 ft 8 kts 355°
2026-05-03 22:47 40.64600 -73.79539 30 ft 13 kts 333°
2026-05-03 22:47 40.64680 -73.79599 25 ft 14 kts 326°
2026-05-03 22:47 40.64765 -73.79673 24 ft 15 kts 326°
2026-05-03 22:47 40.64813 -73.79700 24 ft 0 kts 346°
2026-05-03 22:48 40.64841 -73.79703 25 ft 10 kts 353°
2026-05-03 22:48 40.64927 -73.79702 26 ft 13 kts
2026-05-03 22:48 40.65017 -73.79691 26 ft 13 kts 13°
2026-05-03 22:48 40.65078 -73.79614 30 ft 12 kts 52°
2026-05-03 22:49 40.65115 -73.79523 26 ft 12 kts 61°
2026-05-03 22:49 40.65161 -73.79417 24 ft 14 kts 60°
2026-05-03 22:49 40.65208 -73.79294 24 ft 15 kts 72°
2026-05-03 22:49 40.65195 -73.79165 26 ft 14 kts 104°
2026-05-03 22:50 40.65166 -73.79037 26 ft 14 kts 106°
2026-05-03 22:50 40.65141 -73.78918 26 ft 12 kts 104°
2026-05-03 22:50 40.65140 -73.78828 26 ft 8 kts 85°
2026-05-03 22:50 40.65152 -73.78749 27 ft 11 kts 76°
2026-05-03 22:51 40.65196 -73.78634 27 ft 17 kts 60°
2026-05-03 22:51 40.65249 -73.78511 27 ft 11 kts 60°
2026-05-03 22:51 40.65259 -73.78468 27 ft 0 kts 82°
2026-05-03 22:51 40.65255 -73.78443 27 ft 6 kts 107°
2026-05-03 22:52 40.65195 -73.78407 27 ft 12 kts 159°
2026-05-03 22:52 40.65128 -73.78367 27 ft 10 kts 156°
2026-05-03 22:52 40.65110 -73.78356 27 ft 0 kts 155°